Temp
62 62 62 61 60 60 60 59 59 59 59 59 59 59 60 59 57 53 50 62 58 64 64 63 62 60 59 55 56 53 45 40 44 48 52 56 54 59 60 56 59 60 59 61 62
62 62 62 62 60 60 59 59 59 59 59 59 59 59 59 58 52 49 62 65 65 66 64 60 57 58 55 52 54 50 44 47 55 55 53 55 55 58 56 53 57 58 61 62 61
62 62 62 61 60 60 59 58 58 59 59 59 59 59 58 55 53 63 66 65 65 66 64 64 64 60 52 52 53 48 49 55 59 58 56 54 55 59 56 51 57 57 59 60 60
61 61 61 61 61 60 59 58 58 58 58 58 59 59 58 51 51 63 67 65 66 64 63 62 59 54 51 50 55 49 57 59 57 59 57 56 58 56 54 54 61 61 61 60 60
60 60 60 61 61 60 59 58 58 58 58 58 59 59 54 52 58 65 66 66 64 65 62 62 58 56 51 54 54 53 57 59 61 60 59 61 56 54 53 57 61 60 60 60 60
59 59 60 60 60 59 58 58 57 57 57 58 58 58 51 51 68 67 64 64 64 63 61 62 61 62 58 55 55 59 58 57 59 59 61 56 55 57 56 59 59 59 59 60 60
59 59 59 59 59 59 58 57 57 57 57 57 58 56 50 57 66 63 67 64 65 65 62 65 64 59 59 57 61 59 55 58 56 58 59 61 54 53 58 60 57 58 60 61 61
59 58 58 58 58 58 57 57 56 57 57 57 57 52 50 66 63 65 64 66 67 66 65 67 66 61 57 61 59 53 53 48 56 58 59 59 46 52 58 58 56 57 58 59 60
58 58 57 57 57 57 57 56 56 57 57 57 49 50 52 67 64 69 69 67 67 66 66 73 63 56 57 51 48 49 42 48 51 60 58 54 48 54 57 57 57 56 56 56 57
57 57 57 57 57 56 56 56 56 55 56 57 56 49 58 60 67 68 65 69 66 64 62 59 54 50 49 48 41 43 44 41 47 56 54 48 49 52 56 56 55 55 56 56 57
57 57 57 57 57 56 53 50 50 49 51 54 55 55 59 66 67 67 67 66 64 62 51 53 49 44 49 52 52 51 47 45 50 57 54 52 50 52 53 55 53 55 56 57 58
57 57 57 57 57 56 51 48 54 53 48 56 57 58 62 65 58 64 69 61 58 51 52 50 45 53 55 54 53 52 48 48 53 56 53 46 46 49 52 54 57 55 56 58 59
56 56 56 56 55 53 48 52 60 57 47 55 58 58 60 63 58 59 66 60 56 52 50 46 51 57 57 55 53 50 48 48 50 51 48 46 45 46 53 55 57 57 58 60 59
56 55 55 55 52 50 48 57 59 57 43 50 54 58 61 62 58 66 68 63 55 53 51 50 56 56 53 52 53 45 53 50 51 46 40 46 38 44 48 52 54 56 55 57 59
55 55 55 55 50 49 56 59 56 54 27 55 54 68 62 61 61 62 68 63 55 54 53 50 51 51 50 52 55 51 54 50 50 46 43 43 41 44 46 49 54 57 56 58 58
56 55 55 53 53 52 58 57 56 41 29 50 58 55 55 58 58 60 61 64 61 55 51 51 56 54 54 57 57 56 51 49 46 43 34 41 39 40 43 52 58 61 60 60 57
56 55 54 57 52 53 57 53 41 31 52 49 52 54 53 51 55 56 54 52 49 44 43 48 51 54 56 51 53 51 45 36 35 32 32 43 39 44 53 53 54 57 58 60 60
55 54 54 56 58 53 55 46 33 42 46 54 54 52 49 53 53 53 51 47 49 49 42 42 40 51 55 53 50 46 46 34 31 28 35 42 37 47 54 57 57 57 56 57 55
54 49 50 54 57 56 49 36 37 44 52 51 52 47 46 52 51 51 48 47 51 52 46 40 42 51 54 55 53 47 42 48 36 33 32 37 44 52 52 53 53 54 53 52 51
47 46 46 57 56 53 43 40 46 52 56 53 46 49 43 46 48 49 46 51 52 55 54 50 41 50 53 54 53 50 52 40 36 32 30 34 36 40 50 52 52 52 53 52 51
46 41 48 57 54 46 37 41 48 56 57 51 47 46 48 47 48 45 48 52 55 53 54 49 46 44 49 48 48 46 44 43 43 35 31 27 35 47 51 52 51 53 53 53 52
44 35 51 54 42 44 41 44 51 53 56 53 51 49 48 48 46 46 48 53 56 54 50 51 45 35 46 51 52 49 47 44 33 36 30 29 34 52 52 52 53 54 55 52 52
39 41 51 53 36 38 45 47 49 51 52 50 49 51 51 47 44 48 49 55 54 54 50 51 42 33 40 46 47 46 47 47 41 35 33 27 36 53 51 53 55 55 54 54 52
40 33 43 46 49 43 41 43 43 53 51 53 49 50 48 47 48 46 48 53 53 54 51 54 43 41 38 42 45 41 46 45 44 32 34 33 42 50 52 51 53 54 52 52 53
40 37 46 37 38 42 45 44 42 44 52 51 46 48 47 42 44 44 47 48 51 50 50 51 42 41 44 47 47 47 47 44 44 42 38 42 41 49 50 51 53 52 52 52 51
36 38 46 44 43 42 44 43 42 46 48 46 45 48 48 44 47 44 47 47 48 49 48 47 42 40 39 43 44 42 46 45 44 44 43 43 43 51 49 47 48 49 51 50 50
42 42 42 43 42 40 41 44 44 48 50 52 50 48 44 51 56 52 53 51 49 48 44 44 38 36 36 36 39 34 40 44 44 46 46 40 47 49 45 47 45 47 49 48 47
MSLP
1019.87 1019.79 1019.60 1019.51 1019.29 1019.12 1018.99 1018.94 1018.64 1018.36 1018.12 1017.77 1017.41 1016.97 1016.44 1015.87 1015.37 1014.95 1014.42 1012.15 1012.19 1011.81 1012.05 1012.49 1012.44 1012.53 1012.65 1013.11 1013.41 1013.77 1014.70 1014.90 1013.69 1012.81 1012.24 1012.07 1012.13 1012.45 1012.99 1013.38 1014.02 1014.26 1014.31 1014.86 1015.65
1019.64 1019.50 1019.44 1019.41 1019.19 1019.02 1018.81 1018.74 1018.60 1018.20 1017.98 1017.67 1017.20 1016.73 1016.29 1015.69 1015.15 1014.29 1011.77 1011.65 1011.82 1011.82 1011.92 1012.45 1012.63 1012.76 1012.97 1013.24 1013.59 1013.97 1014.45 1013.70 1012.65 1012.05 1012.01 1012.18 1012.30 1012.59 1013.10 1013.89 1014.51 1014.66 1015.02 1015.37 1015.96
1019.52 1019.36 1019.21 1019.18 1019.10 1018.85 1018.63 1018.51 1018.53 1018.08 1017.87 1017.55 1017.14 1016.48 1016.12 1015.68 1014.82 1012.18 1011.10 1011.51 1011.87 1011.71 1011.81 1012.08 1012.32 1012.49 1012.75 1012.89 1013.28 1013.57 1013.47 1012.44 1011.71 1011.78 1011.89 1012.26 1012.37 1012.65 1013.24 1014.04 1014.33 1014.70 1015.12 1015.75 1016.17
1019.34 1019.17 1019.03 1018.94 1018.91 1018.78 1018.47 1018.30 1018.32 1017.99 1017.73 1017.41 1017.11 1016.38 1015.90 1015.61 1013.92 1011.42 1010.89 1011.19 1011.74 1011.75 1011.99 1012.12 1012.30 1012.44 1012.46 1012.69 1012.48 1012.73 1012.16 1011.80 1011.46 1011.58 1011.85 1012.12 1012.28 1013.07 1013.69 1014.04 1014.05 1014.39 1014.65 1015.58 1016.22
1019.11 1018.95 1018.91 1018.75 1018.54 1018.61 1018.36 1018.08 1017.98 1017.85 1017.60 1017.34 1017.03 1016.50 1015.84 1015.15 1012.68 1011.48 1011.15 1011.43 1011.87 1011.80 1012.13 1012.02 1012.23 1012.24 1012.23 1012.22 1012.16 1012.04 1011.35 1011.30 1011.30 1011.57 1011.64 1011.99 1012.90 1013.66 1014.46 1014.23 1014.06 1014.82 1015.18 1015.59 1016.08
1018.86 1018.62 1018.71 1018.55 1018.26 1018.32 1018.11 1017.96 1017.76 1017.64 1017.43 1017.26 1016.86 1016.78 1016.15 1014.34 1011.10 1011.35 1011.39 1011.70 1011.78 1011.70 1011.96 1011.95 1011.85 1011.77 1011.84 1011.74 1011.71 1011.13 1011.04 1011.18 1011.30 1011.47 1011.46 1012.39 1013.21 1013.22 1014.93 1015.02 1014.97 1015.24 1015.27 1015.58 1015.76
1018.70 1018.41 1018.33 1018.36 1018.15 1017.97 1017.78 1017.68 1017.61 1017.37 1017.22 1017.10 1016.79 1016.97 1016.07 1012.61 1011.18 1011.53 1011.38 1011.42 1011.32 1011.34 1011.68 1011.60 1011.43 1011.69 1011.51 1011.35 1011.05 1010.93 1011.05 1011.26 1011.33 1011.27 1011.51 1011.99 1013.15 1013.94 1014.78 1015.12 1015.23 1015.46 1015.50 1015.36 1016.00
1018.60 1018.41 1018.17 1018.00 1017.98 1017.81 1017.47 1017.30 1017.30 1017.15 1016.97 1016.81 1016.69 1016.89 1014.71 1011.29 1011.13 1011.32 1011.27 1011.18 1011.09 1011.09 1011.38 1011.09 1011.22 1011.49 1011.49 1011.22 1011.17 1011.29 1011.26 1011.45 1011.44 1011.14 1011.62 1011.90 1013.50 1014.49 1014.97 1015.21 1015.50 1015.58 1015.81 1015.88 1016.34
1018.43 1018.31 1017.98 1017.95 1017.73 1017.61 1017.27 1016.87 1016.64 1016.69 1016.66 1016.55 1016.69 1016.30 1013.49 1010.90 1010.87 1010.23 1010.43 1010.69 1010.66 1010.86 1011.08 1010.97 1011.27 1011.66 1011.64 1011.72 1011.98 1011.98 1011.87 1011.62 1011.70 1010.90 1011.16 1012.08 1013.36 1014.29 1015.16 1015.40 1015.75 1015.76 1015.96 1016.11 1016.32
1018.17 1018.01 1017.81 1017.59 1017.54 1017.47 1017.28 1016.53 1016.21 1016.53 1016.60 1016.37 1016.36 1016.05 1012.54 1010.92 1010.23 1010.01 1010.10 1010.29 1010.26 1010.59 1011.11 1011.28 1011.94 1012.24 1012.49 1012.40 1012.63 1012.35 1012.02 1011.77 1011.71 1011.32 1011.47 1012.33 1013.10 1014.03 1014.85 1015.27 1015.25 1015.50 1015.72 1015.79 1015.98
1017.98 1017.71 1017.62 1017.43 1017.20 1017.31 1017.54 1016.62 1016.84 1016.72 1015.75 1014.44 1014.21 1013.36 1011.85 1010.84 1010.01 1009.86 1009.89 1010.23 1010.29 1010.84 1011.60 1011.94 1012.64 1012.67 1012.25 1012.05 1012.04 1011.95 1011.96 1011.94 1011.55 1011.08 1011.59 1011.85 1012.61 1013.52 1014.25 1014.90 1015.05 1015.09 1015.12 1015.39 1015.22
1017.92 1017.53 1017.48 1017.31 1017.30 1017.20 1017.85 1017.28 1016.12 1016.17 1015.11 1013.11 1012.69 1012.45 1011.39 1011.19 1010.97 1009.81 1009.63 1010.07 1010.65 1011.27 1011.70 1012.35 1012.38 1011.69 1011.56 1011.62 1011.57 1011.58 1011.52 1011.52 1011.08 1011.16 1011.69 1012.11 1012.64 1013.13 1013.87 1014.13 1014.03 1014.40 1014.41 1014.43 1014.73
1017.58 1017.39 1017.47 1017.47 1017.30 1017.30 1017.55 1016.64 1015.43 1015.30 1015.28 1012.17 1011.23 1010.89 1010.40 1010.66 1010.38 1009.58 1009.60 1009.61 1010.29 1011.26 1011.75 1012.19 1011.61 1011.16 1010.80 1011.17 1011.02 1010.99 1011.35 1011.46 1011.67 1011.67 1012.21 1012.59 1013.17 1013.24 1013.39 1013.69 1013.77 1013.90 1013.90 1013.96 1014.00
1017.06 1017.29 1017.49 1017.28 1017.89 1017.15 1016.77 1015.78 1015.54 1015.45 1014.79 1011.55 1010.25 1008.98 1009.19 1009.43 1009.50 1008.65 1008.79 1009.10 1010.01 1010.66 1011.71 1011.87 1011.01 1010.81 1010.35 1010.50 1010.82 1011.09 1011.00 1011.42 1011.66 1012.14 1012.96 1013.15 1013.68 1013.36 1013.03 1013.12 1013.33 1013.24 1013.21 1013.20 1013.38
1016.57 1016.95 1017.21 1017.13 1016.75 1016.93 1016.12 1015.92 1015.56 1015.24 1013.80 1009.86 1008.83 1007.73 1008.17 1008.40 1008.29 1008.19 1008.14 1008.57 1009.61 1010.49 1011.36 1011.20 1010.83 1010.65 1010.34 1010.06 1010.36 1010.72 1010.91 1011.43 1011.76 1012.50 1013.27 1013.45 1013.80 1013.18 1013.08 1013.10 1012.49 1012.15 1012.45 1012.47 1012.83
1016.24 1016.49 1017.01 1016.90 1016.72 1015.89 1015.63 1016.04 1015.76 1015.11 1012.25 1008.84 1007.99 1007.96 1008.46 1008.11 1008.09 1008.22 1008.37 1008.44 1009.19 1010.31 1010.87 1011.01 1010.65 1010.45 1010.08 1009.90 1009.93 1010.33 1011.22 1012.01 1012.95 1013.42 1014.01 1013.87 1013.89 1013.00 1012.52 1011.38 1010.87 1010.87 1011.33 1011.51 1012.22
1015.55 1015.97 1016.55 1016.07 1016.03 1015.55 1015.58 1015.96 1015.97 1013.76 1010.34 1008.50 1007.95 1008.00 1008.05 1008.18 1008.35 1008.24 1008.78 1009.14 1009.58 1010.64 1011.07 1011.03 1010.77 1010.17 1009.97 1010.12 1010.23 1010.84 1011.86 1013.37 1014.26 1014.63 1014.68 1014.30 1014.03 1012.01 1010.50 1010.33 1010.35 1010.42 1010.58 1010.50 1010.84
1014.84 1015.58 1015.61 1015.66 1015.80 1015.55 1015.67 1016.13 1014.58 1011.83 1010.04 1008.42 1007.81 1007.96 1008.03 1008.18 1008.53 1008.66 1009.09 1009.59 1009.86 1010.22 1011.34 1011.37 1011.12 1010.34 1009.85 1010.14 1010.41 1011.06 1011.88 1013.78 1015.25 1016.05 1015.61 1014.54 1013.45 1011.08 1010.03 1009.60 1009.56 1009.41 1009.59 1010.29 1010.50
1014.60 1015.23 1015.35 1014.95 1015.54 1015.57 1015.51 1014.74 1012.00 1011.10 1009.46 1008.70 1007.81 1008.00 1008.23 1008.15 1008.23 1008.98 1009.45 1009.68 1009.58 1009.83 1010.73 1011.20 1010.96 1010.35 1010.13 1010.11 1010.66 1011.42 1012.26 1013.14 1015.11 1016.70 1016.41 1014.86 1013.15 1011.10 1010.07 1009.67 1009.50 1009.46 1009.66 1010.15 1010.51
1014.19 1014.77 1014.29 1014.26 1014.94 1015.29 1014.71 1012.34 1010.94 1009.76 1008.94 1008.49 1008.09 1007.61 1008.02 1008.23 1008.48 1008.76 1009.35 1008.98 1009.17 1009.22 1009.26 1010.38 1010.87 1010.69 1010.35 1010.50 1010.64 1011.00 1012.00 1013.56 1014.99 1016.41 1016.61 1015.40 1014.03 1012.02 1010.47 1010.10 1009.94 1010.13 1010.11 1010.11 1010.62
1013.85 1013.83 1012.14 1013.52 1014.41 1014.61 1012.35 1011.05 1010.83 1009.32 1008.90 1008.80 1008.31 1007.84 1007.75 1007.93 1008.14 1008.61 1008.82 1008.57 1008.45 1009.17 1009.49 1010.26 1010.76 1011.20 1011.04 1010.79 1010.68 1011.51 1011.99 1013.26 1014.62 1015.87 1016.34 1015.81 1013.81 1011.41 1010.57 1010.13 1010.08 1010.00 1010.05 1010.19 1010.51
1012.52 1012.17 1011.08 1012.53 1013.03 1012.32 1010.68 1010.47 1010.26 1009.51 1008.91 1008.89 1008.53 1008.08 1007.76 1007.57 1007.91 1008.16 1008.24 1007.78 1007.68 1008.30 1009.70 1009.94 1010.49 1011.44 1010.84 1010.31 1010.20 1010.62 1011.53 1012.70 1014.59 1016.16 1016.39 1015.75 1013.05 1010.65 1010.21 1010.05 1009.79 1009.66 1009.72 1009.91 1010.36
1011.52 1011.29 1010.94 1010.93 1010.74 1009.99 1010.17 1009.95 1009.99 1009.51 1008.96 1008.83 1008.66 1007.97 1007.71 1007.53 1007.95 1007.61 1007.58 1007.08 1007.44 1008.05 1008.70 1009.71 1010.57 1011.47 1011.28 1011.29 1010.88 1010.88 1011.30 1012.23 1013.57 1014.66 1015.54 1015.37 1012.79 1010.71 1010.24 1009.79 1009.28 1009.46 1009.47 1009.96 1010.35
1011.03 1010.78 1010.17 1010.28 1008.25 1008.63 1009.18 1009.10 1009.36 1009.05 1008.93 1008.63 1008.39 1008.17 1007.99 1007.63 1007.56 1007.37 1007.43 1007.43 1007.43 1007.70 1007.90 1008.64 1010.15 1010.84 1010.98 1010.71 1010.42 1010.86 1011.01 1011.90 1012.82 1014.34 1014.26 1013.74 1012.26 1011.07 1010.34 1010.17 1009.58 1009.48 1009.67 1009.97 1010.29
1009.46 1008.72 1007.21 1007.14 1007.97 1007.67 1008.07 1007.75 1008.57 1008.36 1008.33 1008.36 1008.44 1008.28 1007.98 1008.09 1007.81 1007.51 1007.36 1007.53 1007.80 1008.08 1008.54 1008.87 1010.22 1010.82 1010.50 1010.27 1010.32 1010.29 1010.51 1011.31 1012.16 1012.33 1012.88 1012.36 1012.16 1010.91 1010.21 1010.10 1009.83 1009.73 1009.71 1009.93 1010.42
1008.14 1007.66 1006.56 1006.00 1007.27 1007.96 1007.44 1006.62 1006.93 1007.59 1007.58 1007.61 1007.76 1007.77 1008.06 1008.07 1007.66 1007.43 1007.62 1007.55 1007.66 1008.59 1008.82 1009.46 1010.54 1011.17 1011.42 1011.13 1010.62 1010.50 1010.31 1010.63 1011.08 1011.48 1011.75 1011.63 1011.36 1010.09 1010.20 1010.14 1010.25 1010.27 1010.60 1010.87 1011.08
1007.83 1007.29 1006.69 1005.81 1006.38 1007.21 1004.46 1005.58 1006.55 1007.55 1007.46 1006.94 1007.18 1007.56 1007.54 1007.25 1006.88 1007.35 1007.51 1007.65 1008.08 1008.09 1008.78 1009.79 1010.87 1012.27 1012.85 1012.29 1011.64 1011.43 1010.36 1010.03 1010.32 1010.35 1010.44 1010.80 1010.44 1010.34 1010.80 1010.99 1011.31 1011.40 1011.64 1012.11 1012.47
Wind_Speed
9 9 9 8 8 8 9 10 9 11 15 16 17 18 18 17 18 2 6 9 4 4 8 4 2 2 3 2 2 3 5 2 4 2 4 1 2 3 4 7 4 3 2 11 14
9 8 9 9 8 8 8 9 10 10 12 16 16 17 17 16 3 5 10 5 9 6 5 4 2 3 3 2 2 4 3 7 5 2 2 2 2 3 5 3 5 9 10 12 14
10 9 8 8 9 8 8 9 10 12 12 14 16 16 15 8 4 4 3 9 9 6 4 3 4 2 2 2 4 4 5 5 6 4 2 1 1 1 8 2 4 14 10 8 11
11 10 9 9 9 9 8 9 10 12 13 14 15 16 16 2 1 2 6 12 9 6 2 3 2 1 2 2 4 3 8 6 2 6 4 3 4 5 4 2 11 13 15 11 12
11 11 11 9 8 9 9 9 9 11 12 13 14 16 5 4 8 3 11 11 6 5 3 4 2 2 1 3 2 4 4 3 4 6 4 6 5 6 4 10 10 11 10 12 8
12 11 12 10 9 9 9 10 9 9 10 11 11 13 2 5 1 5 9 6 5 5 3 3 4 3 4 3 3 4 3 2 3 6 3 9 5 5 3 2 8 9 8 9 9
12 12 12 11 10 9 9 10 10 9 8 8 7 3 1 14 4 2 7 4 7 5 4 4 2 0 2 4 2 2 3 3 3 3 3 7 2 4 14 12 8 9 7 6 8
13 12 12 10 10 10 9 11 11 10 8 5 3 1 9 4 1 4 4 4 5 5 2 4 2 3 2 3 6 2 3 2 5 1 4 3 1 5 14 14 10 8 5 3 4
12 12 12 12 9 10 10 12 12 13 6 2 2 2 11 5 2 6 8 4 6 4 5 1 1 1 5 3 5 7 1 3 2 7 5 3 3 9 11 12 12 10 9 6 5
11 12 11 13 10 8 11 11 6 1 2 4 1 3 7 0 3 1 2 3 2 3 2 2 5 3 4 5 2 2 3 3 2 3 3 2 3 8 14 10 13 12 10 10 9
11 11 12 12 9 5 7 4 4 4 2 8 4 4 5 8 1 4 4 5 2 6 1 3 4 4 7 5 3 1 1 3 5 5 6 9 5 9 10 8 9 11 12 12 14
10 10 11 12 7 2 2 2 3 2 9 10 12 9 5 3 4 5 8 6 5 5 2 5 3 8 4 4 5 3 2 6 5 4 6 2 4 4 9 9 13 13 13 14 10
10 10 11 12 1 3 3 7 2 3 4 8 6 6 7 9 7 7 8 5 5 5 4 5 4 2 4 4 1 4 3 5 6 3 4 3 4 3 4 3 6 8 8 9 12
11 9 10 3 1 3 4 3 5 4 3 7 5 8 7 8 5 8 8 6 2 8 7 5 5 4 1 2 4 3 4 4 4 3 3 1 3 5 5 8 6 8 9 11 12
12 9 10 12 3 2 1 6 2 1 3 3 4 3 6 11 6 7 5 4 8 6 6 7 3 4 3 5 4 8 4 1 1 4 3 4 5 6 2 8 15 14 12 14 12
15 10 9 8 2 6 3 5 2 5 10 3 7 6 6 4 3 4 4 4 3 6 2 5 3 3 6 4 5 1 2 6 4 3 3 2 4 6 6 14 19 17 13 15 11
13 12 9 3 5 2 1 2 3 6 3 4 5 6 6 6 5 5 7 6 6 5 2 1 3 3 1 1 3 3 5 4 5 5 5 1 1 10 9 6 7 10 12 15 13
13 11 7 8 3 0 3 3 12 5 8 5 1 4 9 6 7 5 7 6 1 5 4 6 6 6 3 5 7 2 7 6 2 2 4 3 5 8 4 7 8 9 8 8 10
12 5 6 6 5 2 3 11 9 6 5 4 1 5 4 5 6 5 8 8 9 8 8 6 5 2 1 1 1 3 2 5 8 3 3 4 7 10 3 5 7 8 4 7 9
6 6 9 9 8 4 7 18 11 6 2 2 6 6 9 7 7 11 9 6 7 10 5 7 2 2 1 1 1 2 7 4 3 2 3 4 5 6 8 6 5 6 8 4 5
9 7 7 12 8 5 15 15 19 9 1 2 2 3 7 8 9 6 10 3 9 6 5 5 5 5 2 7 8 2 1 5 5 5 5 1 7 8 7 5 4 7 8 7 6
5 8 11 15 12 11 18 9 15 22 2 5 3 3 4 6 6 8 11 10 10 11 10 7 6 5 10 3 2 4 7 6 6 4 1 4 9 5 9 7 5 6 7 5 6
7 4 11 15 16 18 15 20 7 15 15 7 6 6 2 2 3 7 8 5 10 9 10 8 1 1 9 4 2 4 5 4 5 4 7 6 8 3 6 7 7 7 5 3 4
6 7 7 12 19 20 22 18 24 9 6 7 3 2 1 3 4 5 7 4 8 8 8 9 4 9 10 9 5 5 6 5 6 4 5 7 7 8 9 7 9 7 6 5 7
6 7 7 17 23 21 21 15 22 19 14 10 4 6 5 4 3 5 2 3 3 5 5 8 8 5 5 4 5 6 5 9 8 6 7 8 8 10 8 6 7 6 6 5 4
6 6 6 4 18 25 18 24 26 26 11 15 5 10 7 5 7 3 2 4 7 4 5 1 5 5 4 1 1 4 6 6 5 4 5 6 7 9 3 2 4 2 5 7 5
6 4 2 14 21 20 31 20 21 17 20 8 19 10 4 17 17 6 6 4 3 6 9 9 8 5 5 2 4 7 8 8 6 5 7 8 11 5 1 2 3 4 7 8 8
Wind_Direction
286 290 290 292 301 309 320 319 323 332 335 330 329 325 325 328 324 17 240 220 180 247 158 115 78 139 64 54 59 131 66 259 259 206 269 223 138 47 54 85 58 17 62 119 119
277 281 287 289 299 305 312 313 320 324 329 330 330 323 324 334 320 257 251 212 219 172 105 143 148 129 51 49 16 91 125 224 227 202 283 351 17 120 79 71 67 93 97 121 123
276 279 281 283 291 299 307 312 319 325 326 329 327 325 324 339 346 257 144 196 185 166 120 138 125 166 106 146 171 171 204 227 255 197 154 144 165 95 129 99 171 150 134 121 133
273 276 276 280 285 293 304 312 316 325 328 329 327 328 324 283 174 9 330 164 165 134 97 116 91 110 143 244 203 172 232 221 321 159 123 142 146 62 43 310 143 159 145 148 149
277 277 280 279 282 291 303 307 312 319 324 329 329 331 354 337 250 53 95 125 128 109 184 157 162 164 220 217 244 204 263 211 155 153 112 93 57 106 104 154 152 129 149 149 147
291 274 274 276 282 288 298 302 306 310 320 325 333 328 10 284 94 113 124 128 144 124 193 181 217 217 265 241 191 223 296 351 112 170 157 118 162 83 156 167 140 142 169 149 163
295 283 268 275 281 283 292 297 296 298 308 315 338 328 357 240 91 70 160 197 172 157 179 223 217 300 255 301 290 292 4 26 354 179 129 134 70 104 151 175 173 176 186 188 164
300 298 283 273 278 283 291 295 294 287 291 288 354 315 252 244 179 268 171 260 195 193 259 263 216 247 223 302 2 149 52 11 302 284 90 61 157 141 161 167 185 197 230 219 168
293 296 299 285 274 282 296 295 294 285 249 217 72 77 266 322 239 238 167 208 156 167 245 304 57 87 11 57 5 4 300 346 73 256 101 133 137 172 168 171 184 213 217 231 219
280 287 293 290 275 295 307 299 294 275 160 149 229 7 271 6 305 247 180 183 116 116 24 82 48 46 10 65 248 314 32 2 138 254 47 117 194 152 179 177 190 209 210 223 222
277 292 292 293 271 326 342 3 343 255 193 197 189 250 275 296 248 246 151 108 49 65 230 13 69 221 226 171 180 272 234 238 243 223 161 214 209 181 182 191 190 208 209 207 218
273 294 301 304 268 89 22 283 234 180 307 232 235 254 265 87 294 269 145 120 137 185 144 21 238 221 200 185 171 192 14 316 300 19 183 124 264 198 170 210 197 194 217 210 213
261 285 300 296 139 64 213 237 88 47 268 281 194 208 195 151 207 250 160 142 141 149 172 160 256 201 158 202 38 334 343 292 218 33 52 85 345 217 189 219 186 200 213 224 208
249 265 281 175 269 161 245 258 265 179 312 265 224 250 152 153 236 207 196 143 141 191 152 224 255 244 217 132 122 307 193 260 242 105 203 177 262 265 225 227 230 213 212 214 216
237 244 267 196 148 203 332 351 87 122 342 227 192 161 173 159 155 219 197 67 160 165 118 245 212 199 232 213 153 239 49 330 57 104 109 343 94 262 148 231 237 233 219 224 207
233 223 247 208 206 237 316 324 259 61 245 305 159 156 155 188 187 111 143 68 143 124 155 227 267 208 216 199 176 315 139 50 45 88 57 316 124 270 189 212 224 228 227 222 201
231 215 207 183 236 167 29 31 240 207 315 224 185 164 175 169 191 139 158 156 148 120 221 359 237 282 198 165 34 111 60 353 358 12 224 248 71 241 261 240 241 244 219 215 204
210 223 220 229 243 41 129 191 229 217 234 321 223 123 176 144 223 158 132 167 244 103 121 171 307 187 183 211 181 178 140 147 235 206 278 322 251 263 227 288 268 251 248 197 203
203 225 227 209 210 205 162 220 205 206 218 243 62 131 211 215 151 136 181 183 182 165 159 146 266 267 165 19 124 193 115 160 105 12 52 262 293 300 358 334 328 320 293 205 191
201 215 224 178 170 167 208 225 208 209 294 360 203 180 181 199 156 180 176 199 199 184 154 201 152 205 231 62 249 200 158 91 16 166 252 285 285 245 320 320 322 310 284 259 177
191 208 187 177 149 205 211 212 221 249 102 327 294 294 214 168 181 179 194 237 191 182 121 133 127 256 160 194 190 137 186 58 115 134 175 232 259 217 242 240 272 259 254 255 221
208 205 164 156 187 203 220 183 221 230 204 257 293 235 237 186 169 179 192 198 178 148 156 197 147 192 213 291 116 150 188 145 132 207 126 159 271 242 239 262 263 275 252 248 229
199 208 183 166 189 207 211 214 249 225 222 203 227 221 357 257 201 179 201 238 157 141 159 179 193 59 332 6 339 208 188 127 103 86 191 141 262 324 300 274 256 267 277 275 226
168 177 168 192 217 202 194 207 208 226 239 199 217 243 198 310 241 235 201 194 184 184 123 109 141 168 208 212 165 183 175 165 139 126 182 218 265 293 283 291 301 284 277 270 241
183 206 195 189 205 210 196 190 196 214 207 175 198 213 166 212 274 200 174 116 64 151 108 132 193 178 239 203 184 203 178 163 183 194 161 245 201 257 263 258 274 287 283 211 226
150 204 194 198 202 202 209 204 196 202 186 207 179 187 204 197 208 162 189 187 182 211 140 199 183 162 177 167 160 225 236 199 213 177 237 238 255 230 303 315 342 36 62 62 56
190 276 300 210 183 197 211 200 198 189 228 197 211 220 189 225 244 249 225 215 217 182 168 145 132 116 230 25 46 325 221 212 209 203 177 202 221 163 106 23 15 78 86 76 59